K2AS-13 Weather Reports


time (UTC)temp
C
wind
direction
speed
KPH
gust
KPH
rain 1hr
cm
rain 24hr
cm
rain mn
cm
humidity
%
barometer
mb
20260509112016 8 0.0 0.0 0.00 0.03 0.00 76 1006.8
20260509111056 8 0.0 0.0 0.00 0.03 0.00 76 1006.9
20260509110016 7 0.0 0.0 0.00 0.03 0.00 76 1006.7
20260509105016 7 0.0 0.0 0.00 0.03 0.00 76 1006.8
20260509104016 7 0.0 0.0 0.00 0.03 0.00 75 1006.6
20260509103016 7 0.0 0.0 0.00 0.03 0.00 75 1006.6
20260509102016 7 0.0 0.0 0.00 0.03 0.00 75 1006.5
20260509101015 7 0.0 0.0 0.00 0.03 0.00 74 1006.5
20260509100016 7 0.0 0.0 0.00 0.03 0.00 74 1006.6
20260509095016 7 0.0 0.0 0.00 0.03 0.00 74 1006.6
20260509094016 7 0.0 0.0 0.00 0.03 0.00 74 1006.5
20260509093036 7 0.0 0.0 0.00 0.03 0.00 73 1006.6
20260509092016 7 0.0 0.0 0.00 0.03 0.00 73 1006.5
20260509091015 7 0.0 0.0 0.00 0.03 0.00 72 1006.6
20260509090016 7 0.0 0.0 0.00 0.03 0.00 72 1006.7
20260509085016 7 0.0 0.0 0.00 0.03 0.00 72 1006.8
20260509084036 7 0.0 0.0 0.00 0.03 0.00 71 1006.9
20260509083016 7 0.0 0.0 0.00 0.03 0.00 71 1007.0
20260509082036 7 0.0 0.0 0.00 0.03 0.00 71 1007.0
20260509081016 7 0.0 0.0 0.00 0.03 0.00 71 1007.1
20260509080036 7 0.0 0.0 0.00 0.03 0.00 70 1007.1
20260509075016 7 0.0 0.0 0.00 0.03 0.00 69 1007.2
20260509074016 7 0.0 0.0 0.00 0.03 0.00 69 1007.4
20260509073016 7 0.0 0.0 0.00 0.03 0.00 69 1007.5
20260509072015 7 0.0 0.0 0.00 0.03 0.00 68 1007.5
20260509071056 8 0.0 0.0 0.00 0.03 0.00 68 1007.6
20260509070016 8 0.0 0.0 0.00 0.05 0.00 66 1007.8
20260509065015 8 0.0 0.0 0.00 0.05 0.00 67 1007.7
20260509064016 8 0.0 0.0 0.00 0.05 0.00 67 1007.8
20260509063015 8 0.0 0.0 0.00 0.05 0.00 67 1008.0
20260509062016 7 0.0 0.0 0.00 0.05 0.00 69 1008.1
20260509061016 7 0.0 0.0 0.00 0.05 0.00 69 1008.2
20260509060016 7 0.0 0.0 0.00 0.05 0.00 71 1008.3
20260509055015 7 0.0 0.0 0.00 0.05 0.00 71 1008.4
20260509054016 7 0.0 0.0 0.00 0.05 0.00 71 1008.5
20260509053035 7 0.0 0.0 0.00 0.05 0.00 72 1008.6
20260509052036 7 0.0 0.0 0.00 0.05 0.00 70 1008.7
20260509051015 7 0.0 0.0 0.00 0.05 0.00 71 1008.7
20260509050016 7 0.0 0.0 0.00 0.05 0.00 72 1008.8
20260509045015 7 0.0 0.0 0.00 0.05 0.00 74 1008.8
20260509044015 7 0.0 0.0 0.00 0.05 0.00 73 1008.9
20260509043056 7 0.0 0.0 0.00 0.05 0.00 74 1008.9
20260509042015 7 0.0 0.0 0.00 0.08 0.00 74 1009.0
20260509041036 7 0.0 0.0 0.00 0.08 0.00 75 1009.2
20260509040015 7 0.0 0.0 0.00 0.08 0.00 74 1009.2
20260509035017 7 0.0 0.0 0.00 0.08 0.08 73 1009.1
20260509034017 7 0.0 0.0 0.00 0.10 0.08 74 1009.2
20260509033016 7 0.0 0.0 0.00 0.15 0.08 75 1009.1
20260509032037 7 0.0 0.0 0.00 0.15 0.08 75 1009.2
20260509031017 7 0.0 0.0 0.00 0.15 0.08 76 1009.3
20260509030016 7 0.0 0.0 0.00 0.15 0.08 77 1009.4
20260509025017 6 0.0 0.0 0.00 0.15 0.08 80 1009.2
20260509024017 6 0.0 0.0 0.00 0.18 0.08 81 1009.2
20260509023017 6 0.0 0.0 0.00 0.18 0.08 81 1009.2
20260509022016 6 0.0 0.0 0.00 0.18 0.08 82 1009.3
20260509021016 6 0.0 0.0 0.00 0.18 0.08 82 1009.3
20260509020017 6 0.0 0.0 0.00 0.18 0.08 83 1009.4
20260509015017 6 0.0 0.0 0.00 0.18 0.08 82 1009.3
20260509014037 6 0.0 0.0 0.00 0.18 0.08 85 1009.4
20260509013016 7 0.0 0.0 0.00 0.18 0.08 82 1009.4
20260509012037 7 0.0 0.0 0.00 0.18 0.08 81 1009.3
20260509011016 7 0.0 0.0 0.00 0.18 0.08 81 1009.1
20260509010017 7 0.0 0.0 0.00 0.18 0.08 80 1008.9
20260509005017 7 0.0 0.0 0.00 0.18 0.08 76 1008.8
20260509004016 8 0.0 0.0 0.00 0.18 0.08 75 1008.7
20260509003016 8 0.0 0.0 0.00 0.18 0.08 73 1008.7
20260509002017 9 0.0 0.0 0.00 0.18 0.08 66 1008.7
20260509001016 10 0.0 0.0 0.00 0.18 0.08 68 1008.7
20260509000016 10 0.0 0.0 0.00 0.18 0.08 67 1008.7
20260508235016 10 0.0 0.0 0.00 0.18 0.08 66 1008.6
20260508234016 10 0.0 0.0 0.00 0.18 0.08 62 1008.5
20260508233037 10 0.0 0.0 0.00 0.18 0.08 61 1008.5
20260508232016 11 0.0 0.0 0.00 0.18 0.08 62 1008.5
20260508231016 11 0.0 0.0 0.00 0.18 0.08 61 1008.5
20260508230017 11 0.0 0.0 0.00 0.18 0.08 56 1008.6
20260508225016 11 0.0 0.0 0.00 0.18 0.08 56 1008.6
20260508224017 11 0.0 0.0 0.00 0.18 0.08 60 1008.6
20260508223016 11 0.0 0.0 0.00 0.18 0.08 61 1008.6
20260508222037 11 0.0 0.0 0.00 0.18 0.08 61 1008.6
20260508221017 11 0.0 0.0 0.00 0.18 0.08 60 1008.8
20260508220036 11 0.0 0.0 0.00 0.18 0.08 63 1008.9
20260508215016 11 0.0 0.0 0.00 0.18 0.08 66 1008.9
20260508214016 12 0.0 0.0 0.00 0.18 0.08 61 1008.9
20260508213016 12 0.0 0.0 0.00 0.18 0.08 61 1008.9
20260508212036 12 0.0 0.0 0.00 0.18 0.08 62 1008.9
20260508211036 12 0.0 0.0 0.00 0.18 0.08 65 1008.9
20260508210016 11 0.0 0.0 0.00 0.18 0.08 65 1008.9
20260508205016 11 0.0 0.0 0.00 0.18 0.08 69 1009.1
20260508204016 11 0.0 0.0 0.00 0.18 0.08 70 1009.3
20260508203016 11 0.0 0.0 0.00 0.18 0.08 70 1009.4
20260508202016 10 0.0 0.0 0.00 0.18 0.08 74 1009.6
20260508201016 10 0.0 4.8 0.00 0.18 0.08 71 1009.6
20260508200017 10 23 1.6 6.4 0.00 0.18 0.08 72 1009.7
20260508195016 9 23 3.2 8.0 0.00 0.18 0.08 70 1009.8
20260508194016 9 0 4.8 11.3 0.00 0.18 0.08 71 1009.8
20260508193016 9 23 4.8 14.5 0.00 0.18 0.08 72 1010.0
20260508192017 9 23 3.2 9.7 0.00 0.18 0.08 72 1010.0
20260508191016 9 23 4.8 9.7 0.00 0.18 0.08 70 1010.1
20260508190016 9 90 1.6 9.7 0.00 0.18 0.08 76 1010.1
20260508185037 9 0 1.6 8.0 0.00 0.18 0.08 77 1010.0
20260508184016 9 0 3.2 11.3 0.00 0.18 0.08 74 1010.1
20260508183016 9 45 3.2 8.0 0.00 0.18 0.08 74 1010.1
20260508182016 9 23 1.6 11.3 0.00 0.18 0.08 76 1010.2
20260508181036 10 0.0 1.6 0.00 0.18 0.08 80 1010.2
20260508180016 10 315 3.2 12.9 0.00 0.18 0.08 78 1010.3
20260508175016 10 315 6.4 12.9 0.00 0.18 0.08 75 1010.3
20260508174016 10 338 6.4 12.9 0.00 0.18 0.08 72 1010.3
20260508173016 10 293 3.2 9.7 0.00 0.18 0.08 75 1010.4
20260508172016 10 338 8.0 16.1 0.00 0.18 0.08 70 1010.4
20260508171036 10 315 4.8 14.5 0.00 0.18 0.08 71 1010.5
20260508170016 8 293 1.6 11.3 0.00 0.18 0.08 77 1010.6
20260508165016 10 338 3.2 14.5 0.00 0.18 0.08 75 1010.8
20260508164016 10 315 3.2 16.1 0.00 0.18 0.08 73 1010.9
20260508163017 9 315 4.8 14.5 0.00 0.18 0.08 77 1011.0
20260508162016 9 293 4.8 14.5 0.00 0.18 0.08 76 1011.1
20260508161016 9 0.0 0.0 0.00 0.18 0.08 82 1011.2
20260508160016 8 0.0 0.0 0.00 0.18 0.08 81 1011.3
20260508155036 8 270 4.8 14.5 0.00 0.18 0.08 78 1011.2
20260508154036 9 293 1.6 11.3 0.00 0.18 0.08 75 1011.1
20260508153016 9 0.0 14.5 0.00 0.18 0.08 73 1011.1
20260508152056 9 248 3.2 12.9 0.00 0.18 0.08 76 1011.1
20260508151036 8 248 1.6 11.3 0.00 0.18 0.08 75 1011.1
20260508150016 8 0.0 1.6 0.00 0.18 0.08 76 1011.1
20260508145016 8 0.0 0.0 0.00 0.18 0.08 78 1011.0
20260508144036 8 0.0 1.6 0.00 0.18 0.08 80 1011.0
20260508143016 7 248 3.2 11.3 0.00 0.18 0.08 81 1010.9
20260508142016 7 203 3.2 11.3 0.00 0.18 0.08 83 1010.8
20260508141016 7 225 3.2 11.3 0.00 0.18 0.08 85 1010.8
20260508140016 7 225 4.8 11.3 0.00 0.18 0.08 86 1010.8
20260508135016 6 225 1.6 9.7 0.00 0.18 0.08 88 1010.8
20260508134016 6 203 3.2 12.9 0.03 0.18 0.08 89 1010.8
20260508133016 6 248 1.6 6.4 0.03 0.18 0.08 90 1010.9
20260508132016 6 225 4.8 12.9 0.03 0.18 0.08 89 1010.9
20260508131016 6 248 4.8 16.1 0.03 0.18 0.08 91 1010.8
20260508130016 6 0.0 0.0 0.03 0.18 0.08 94 1010.8
20260508125016 6 0.0 0.0 0.03 0.18 0.08 93 1010.8
20260508124016 6 0.0 0.0 0.00 0.15 0.05 95 1010.7
20260508123036 6 0.0 0.0 0.00 0.15 0.05 96 1010.6
20260508122016 6 0.0 0.0 0.00 0.15 0.05 96 1010.6
20260508121016 6 0.0 0.0 0.00 0.15 0.05 96 1010.6
20260508120016 6 0.0 0.0 0.00 0.15 0.05 96 1010.5
20260508115016 6 0.0 0.0 0.00 0.15 0.05 96 1010.3
20260508114016 5 0.0 0.0 0.00 0.15 0.05 96 1010.1
20260508113016 5 0.0 0.0 0.00 0.15 0.05 96 1010.0